N1YZ Weather Reports


time (UTC)temp
C
wind
direction
speed
KPH
gust
KPH
rain 1hr
cm
rain 24hr
cm
rain mn
cm
humidity
%
barometer
mb
20260504205404 24 26 0.0 0.0 0.00 0.00 0.00 47 1033.4
20260504204902 24 6 1.6 3.2 0.00 0.00 0.00 43 1033.4
20260504204400 25 343 4.8 4.8 0.00 0.00 0.00 44 1033.4
20260504203900 25 9 0.0 0.0 0.00 0.00 0.00 45 1033.3
20260504203356 25 7 0.0 0.0 0.00 0.00 0.00 42 1033.4
20260504202852 25 19 0.0 0.0 0.00 0.00 0.00 44 1033.5
20260504202349 25 35 0.0 0.0 0.00 0.00 0.00 47 1033.2
20260504201845 25 339 1.6 1.6 0.00 0.00 0.00 46 1033.6
20260504201343 25 29 0.0 0.0 0.00 0.00 0.00 45 1033.6
20260504200840 24 2 0.0 0.0 0.00 0.00 0.00 45 1033.5
20260504200337 24 21 0.0 0.0 0.00 0.00 0.00 45 1033.8
20260504195833 24 6 0.0 0.0 0.00 0.00 0.00 46 1033.7
20260504195329 25 334 1.6 3.2 0.00 0.00 0.00 43 1033.9
20260504194826 25 18 1.6 1.6 0.00 0.00 0.00 44 1034.2
20260504194322 25 356 0.0 1.6 0.00 0.00 0.00 39 1034.0
20260504193818 25 21 0.0 0.0 0.00 0.00 0.00 41 1034.1
20260504193316 24 10 3.2 3.2 0.00 0.00 0.00 45 1034.3
20260504192814 25 328 3.2 4.8 0.00 0.00 0.00 43 1034.1
20260504192312 26 342 1.6 1.6 0.00 0.00 0.00 41 1034.0
20260504191810 26 345 1.6 1.6 0.00 0.00 0.00 43 1034.2
20260504191307 26 11 0.0 0.0 0.00 0.00 0.00 44 1034.4
20260504190802 26 16 0.0 0.0 0.00 0.00 0.00 44 1034.5
20260504190259 26 17 0.0 0.0 0.00 0.00 0.00 43 1034.4
20260504185755 26 119 1.6 1.6 0.00 0.00 0.00 41 1034.5
20260504185253 25 10 1.6 3.2 0.00 0.00 0.00 46 1034.5
20260504184749 26 20 0.0 0.0 0.00 0.00 0.00 46 1034.8
20260504184244 25 10 1.6 1.6 0.00 0.00 0.00 46 1034.6
20260504183740 25 10 0.0 1.6 0.00 0.00 0.00 45 1035.0
20260504183237 25 356 0.0 0.0 0.00 0.00 0.00 42 1034.8
20260504182736 25 337 3.2 4.8 0.00 0.00 0.00 44 1035.1
20260504182233 25 26 0.0 0.0 0.00 0.00 0.00 46 1035.1
20260504181730 25 19 0.0 0.0 0.00 0.00 0.00 46 1035.2
20260504181227 25 188 1.6 1.6 0.00 0.00 0.00 41 1035.2
20260504180726 25 338 3.2 3.2 0.00 0.00 0.00 43 1035.4
20260504180225 25 175 3.2 3.2 0.00 0.00 0.00 45 1035.1
20260504175722 25 20 0.0 0.0 0.00 0.00 0.00 47 1035.7
20260504175218 25 349 0.0 0.0 0.00 0.00 0.00 46 1035.6
20260504174716 25 214 1.6 4.8 0.00 0.00 0.00 45 1035.6
20260504174214 25 7 0.0 0.0 0.00 0.00 0.00 44 1035.3
20260504173710 26 12 0.0 1.6 0.00 0.00 0.00 43 1035.7
20260504173208 25 351 0.0 0.0 0.00 0.00 0.00 47 1035.7
20260504172704 23 14 0.0 0.0 0.00 0.00 0.00 43 1035.6
20260504172200 23 342 0.0 0.0 0.00 0.00 0.00 47 1035.8
20260504171657 23 334 4.8 4.8 0.00 0.00 0.00 46 1035.9
20260504171154 24 20 0.0 0.0 0.00 0.00 0.00 45 1036.0
20260504170650 23 353 0.0 0.0 0.00 0.00 0.00 48 1036.1
20260504170148 24 31 0.0 0.0 0.00 0.00 0.00 49 1036.3
20260504151033 21 342 0.0 1.6 0.00 0.00 0.00 58 1036.9
20260504150531 20 352 0.0 0.0 0.00 0.00 0.00 59 1037.0
20260504140957 16 343 0.0 0.0 0.00 0.00 0.00 70 1037.2
20260504140453 16 12 0.0 0.0 0.00 0.00 0.00 70 1037.4
20260504130418 11 179 0.0 0.0 0.00 0.00 0.00 92 1037.3
20260504110305 8 54 0.0 0.0 0.00 0.00 0.00 98 1036.7
20260504100223 8 46 0.0 0.0 0.00 0.00 0.00 97 1036.7
20260504081616 9 344 0.0 0.0 0.00 0.00 0.00 96 1036.6
20260504081112 9 344 0.0 0.0 0.00 0.00 0.00 96 1036.5
20260504080609 8 344 0.0 0.0 0.00 0.00 0.00 96 1036.7
20260504080105 8 344 0.0 0.0 0.00 0.00 0.00 96 1036.8
20260504050416 11 344 0.0 0.0 0.00 0.00 0.00 89 1037.9
20260504045913 11 344 0.0 0.0 0.00 0.00 0.00 87 1037.8
20260504045408 11 344 0.0 0.0 0.00 0.00 0.00 86 1037.7
20260504044905 11 344 0.0 0.0 0.00 0.00 0.00 85 1037.9
20260504044403 11 344 0.0 0.0 0.00 0.00 0.00 84 1038.0
20260504043900 11 344 0.0 0.0 0.00 0.00 0.00 84 1037.9
20260504043356 11 344 0.0 0.0 0.00 0.00 0.00 83 1038.1
20260504042854 11 342 0.0 0.0 0.00 0.00 0.00 83 1038.0
20260504042350 11 343 0.0 0.0 0.00 0.00 0.00 82 1038.1
20260504041847 11 332 0.0 0.0 0.00 0.00 0.00 83 1038.1
20260504041343 11 358 0.0 0.0 0.00 0.00 0.00 83 1038.1
20260504040839 12 359 0.0 0.0 0.00 0.00 0.00 83 1038.2
20260504040337 12 359 0.0 0.0 0.00 0.00 0.00 82 1038.1
20260504035832 12 359 0.0 0.0 0.00 0.00 0.00 83 1038.0
20260504035331 12 359 0.0 0.0 0.00 0.00 0.00 82 1037.9
20260504034827 12 359 0.0 0.0 0.00 0.00 0.00 82 1038.2
20260504034325 12 359 0.0 0.0 0.00 0.00 0.00 82 1038.2
20260504033821 12 359 0.0 0.0 0.00 0.00 0.00 81 1038.3
20260504033320 12 359 0.0 0.0 0.00 0.00 0.00 81 1038.4
20260504032816 12 359 0.0 0.0 0.00 0.00 0.00 80 1038.4
20260504032313 12 359 0.0 0.0 0.00 0.00 0.00 80 1038.5
20260504031810 12 359 0.0 0.0 0.00 0.00 0.00 80 1038.5
20260504031307 12 359 0.0 0.0 0.00 0.00 0.00 79 1038.4
20260504030803 12 359 0.0 0.0 0.00 0.00 0.00 75 1038.4
20260504030301 13 359 0.0 0.0 0.00 0.00 0.00 75 1038.3
20260504025756 13 359 0.0 0.0 0.00 0.00 0.00 74 1038.4
20260504025254 13 359 0.0 0.0 0.00 0.00 0.00 75 1038.1
20260504024750 13 359 0.0 0.0 0.00 0.00 0.00 74 1038.1
20260504024247 13 359 0.0 0.0 0.00 0.00 0.00 71 1038.1
20260504023744 13 359 0.0 0.0 0.00 0.00 0.00 73 1038.2
20260504023240 13 359 0.0 0.0 0.00 0.00 0.00 71 1038.1
20260504022736 13 359 0.0 0.0 0.00 0.00 0.00 69 1038.0
20260504022233 13 359 0.0 0.0 0.00 0.00 0.00 69 1037.9
20260504021730 13 359 0.0 0.0 0.00 0.00 0.00 70 1037.8
20260504021227 14 359 0.0 0.0 0.00 0.00 0.00 70 1037.6
20260504020724 14 359 0.0 0.0 0.00 0.00 0.00 72 1037.7
20260504020220 14 359 0.0 0.0 0.00 0.00 0.00 68 1037.9
20260504015717 14 359 0.0 0.0 0.00 0.00 0.00 70 1037.7
20260504015213 15 359 0.0 0.0 0.00 0.00 0.00 68 1037.8
20260504014709 15 359 0.0 0.0 0.00 0.00 0.00 67 1037.6
20260504014206 15 359 0.0 0.0 0.00 0.00 0.00 66 1037.7
20260504013704 15 359 0.0 0.0 0.00 0.00 0.00 65 1037.8
20260504013201 15 359 0.0 0.0 0.00 0.00 0.00 65 1037.6
20260504012657 15 359 0.0 0.0 0.00 0.00 0.00 66 1037.5
20260504012155 15 359 0.0 0.0 0.00 0.00 0.00 68 1037.2
20260504011652 15 359 0.0 0.0 0.00 0.00 0.00 64 1037.5
20260504011148 16 359 0.0 0.0 0.00 0.00 0.00 61 1037.3
20260504010644 16 359 0.0 0.0 0.00 0.00 0.00 59 1037.2
20260504010140 16 359 0.0 0.0 0.00 0.00 0.00 60 1037.3
20260504005637 16 359 0.0 0.0 0.00 0.00 0.00 60 1037.2
20260504005134 16 359 0.0 0.0 0.00 0.00 0.00 60 1037.3
20260504004632 16 359 0.0 0.0 0.00 0.00 0.00 57 1037.1
20260504004129 16 359 0.0 0.0 0.00 0.00 0.00 59 1037.3
20260504003625 17 359 0.0 0.0 0.00 0.00 0.00 58 1037.2
20260504003122 17 359 0.0 0.0 0.00 0.00 0.00 57 1037.2
20260504002619 17 359 0.0 0.0 0.00 0.00 0.00 54 1037.1
20260504002116 17 359 0.0 0.0 0.00 0.00 0.00 54 1037.1
20260504001614 17 358 0.0 0.0 0.00 0.00 0.00 52 1037.1
20260504001109 18 354 0.0 0.0 0.00 0.00 0.00 51 1037.1
20260504000607 18 354 0.0 0.0 0.00 0.00 0.00 49 1037.2
20260504000105 18 344 0.0 0.0 0.00 0.00 0.00 49 1036.7
20260503235603 18 21 0.0 0.0 0.00 0.00 0.00 51 1037.2
20260503235059 18 44 0.0 0.0 0.00 0.00 0.00 52 1037.0
20260503234557 18 6 0.0 0.0 0.00 0.00 0.00 50 1036.9
20260503234055 18 6 0.0 0.0 0.00 0.00 0.00 50 1036.9
20260503233551 18 5 0.0 0.0 0.00 0.00 0.00 48 1037.0
20260503233047 18 5 0.0 0.0 0.00 0.00 0.00 50 1036.8
20260503232544 18 5 0.0 0.0 0.00 0.00 0.00 51 1036.8
20260503232042 18 5 0.0 0.0 0.00 0.00 0.00 50 1037.1
20260503231540 19 6 0.0 0.0 0.00 0.00 0.00 47 1036.8
20260503231036 19 7 0.0 0.0 0.00 0.00 0.00 46 1036.9
20260503230532 19 6 0.0 0.0 0.00 0.00 0.00 46 1037.1
20260503230030 19 55 0.0 0.0 0.00 0.00 0.00 45 1037.1
20260503225527 20 42 0.0 0.0 0.00 0.00 0.00 46 1037.1
20260503225021 20 44 0.0 0.0 0.00 0.00 0.00 46 1037.2
20260503224520 20 45 0.0 0.0 0.00 0.00 0.00 47 1037.3
20260503224017 20 55 0.0 0.0 0.00 0.00 0.00 46 1037.1
20260503223515 20 30 0.0 0.0 0.00 0.00 0.00 45 1037.0
20260503223010 20 31 0.0 0.0 0.00 0.00 0.00 46 1036.9
20260503222509 20 74 0.0 0.0 0.00 0.00 0.00 43 1037.1
20260503222006 21 344 0.0 0.0 0.00 0.00 0.00 43 1037.0
20260503221504 21 342 0.0 0.0 0.00 0.00 0.00 40 1037.2
20260503221001 21 39 0.0 0.0 0.00 0.00 0.00 40 1037.2
20260503220457 22 347 0.0 0.0 0.00 0.00 0.00 36 1037.3
20260503215949 23 21 0.0 0.0 0.00 0.00 0.00 35 1037.2
20260503215446 23 30 0.0 0.0 0.00 0.00 0.00 40 1037.4
20260503214943 21 71 0.0 1.6 0.00 0.00 0.00 40 1037.4
20260503214441 22 29 0.0 0.0 0.00 0.00 0.00 39 1037.6
20260503213937 21 49 0.0 0.0 0.00 0.00 0.00 42 1037.6
20260503213436 21 94 0.0 0.0 0.00 0.00 0.00 40 1037.5
20260503212932 22 187 1.6 3.2 0.00 0.00 0.00 39 1037.4
20260503212430 22 182 3.2 3.2 0.00 0.00 0.00 38 1037.4
20260503211927 22 38 0.0 0.0 0.00 0.00 0.00 44 1037.6
20260503211424 22 166 0.0 0.0 0.00 0.00 0.00 38 1037.8
20260503210919 21 139 0.0 0.0 0.00 0.00 0.00 39 1037.7
20260503210416 21 39 0.0 0.0 0.00 0.00 0.00 40 1037.9
20260503205911 21 137 1.6 1.6 0.00 0.00 0.00 40 1037.7